[[{"header":{"parameterUnit":"m.s-1","parameterCategory":1,"la1":30.2991,"la2":30.254,"lo1":-89.0895,"lo2":-89.0444,"dy":0.0017,"dx":0.0017,"nx":28,"ny":28,"refTime":"2023-09-29T09:00:00:Z","depth":0,"parameterNumber":2,"parameterNumberName":"U-component_of_WINDS"},"data":[0,0,0,0,0,0,0,0,0,0,0,0,0,0,0,0,0,0,0,0,0,0,0,0,0,0,0,0,0,0,0,0,0,0,0,0,0,0,0,0,0,0,0,0,0,0,0,0,0,0,0,0,0,0,0,0,0,0,-1.2528,-1.2528,0,-1.2571,-1.2571,-1.2572,-1.2514,-1.2512,-1.251,-1.2508,-1.2554,-1.2557,-1.256,0,0,0,0,0,0,0,0,0,0,0,0,0,-1.2398,-1.2401,-1.2528,-1.2528,-1.2529,-1.2571,-1.2571,-1.2572,-1.2515,-1.2512,-1.251,-1.2507,-1.2553,-1.2556,-1.256,0,0,0,0,0,0,0,0,0,0,0,0,0,-1.2449,-1.2402,-1.2528,-1.2505,-1.2504,-1.2571,-1.2571,-1.2572,-1.2515,-1.2512,-1.2509,-1.2506,-1.2552,-1.2556,-1.2561,-1.2652,0,0,-1.2575,-1.2577,0,0,0,0,0,0,0,0,-1.2446,-1.2454,-1.2508,-1.2507,-1.2506,-1.2534,-1.2542,-1.2599,-1.2516,-1.2511,-1.2508,-1.2505,-1.255,-1.2554,-1.2569,-1.2654,-1.2656,-1.2575,-1.2578,-1.258,-1.2582,0,0,0,0,0,0,0,-1.2443,-1.2452,-1.2545,-1.2509,-1.2507,-1.2494,-1.2498,-1.2552,-1.2547,-1.2511,-1.2507,-1.2513,-1.2548,-1.2565,-1.257,-1.2656,-1.2575,-1.258,-1.2582,-1.2584,-1.2819,-1.2822,0,0,0,0,0,0,-1.2442,-1.2449,-1.2543,-1.2546,-1.2468,-1.2499,-1.2503,-1.2528,-1.2547,-1.2546,-1.2516,-1.251,-1.2558,-1.2565,-1.2571,-1.268,-1.258,-1.2585,-1.2587,-1.2815,-1.2819,-1.2823,0,0,0,0,0,0,-1.2439,-1.2451,-1.2542,-1.2497,-1.2507,-1.2504,-1.2533,-1.2531,-1.2547,-1.255,-1.2549,-1.2533,-1.2556,-1.2565,-1.2632,-1.2681,-1.2587,-1.2591,-1.2811,-1.2816,-1.2821,-1.2898,0,0,0,0,0,0,-1.2436,-1.245,-1.2484,-1.2498,-1.251,-1.2602,-1.2536,-1.2534,-1.2555,-1.2548,-1.2566,-1.2566,-1.2554,-1.2626,-1.2637,-1.2686,-1.2595,-1.2807,-1.2813,-1.282,-1.2891,-1.2905,-1.2917,0,0,0,0,0,-1.2431,-1.2504,-1.2486,-1.2498,-1.2552,-1.2605,-1.2612,-1.2596,-1.2559,-1.2594,-1.2596,-1.2566,-1.2673,-1.2633,-1.2645,-1.2696,-1.2804,-1.2812,-1.2819,-1.2885,-1.2902,-1.2917,0,0,0,0,0,0,-1.2497,-1.2506,-1.2486,-1.2565,-1.2585,-1.2595,-1.2638,-1.2615,-1.2645,-1.2638,-1.2618,-1.2622,-1.2695,-1.2702,-1.2657,-1.2786,-1.2732,-1.2743,-1.2779,-1.2795,-1.2807,-1.2805,-1.2599,0,0,0,0,0,-1.2521,-1.2562,-1.2567,-1.2637,-1.2648,-1.2642,-1.2664,-1.265,-1.267,-1.2678,-1.2684,-1.2705,-1.2743,-1.2769,-1.2804,-1.2891,-1.2895,-1.2932,-1.2945,-1.2956,-1.2966,-1.3013,-1.303,-1.2848,-1.2848,-1.2848,0,0,-1.2571,-1.258,-1.2608,-1.2651,-1.2664,-1.2708,-1.2649,-1.2698,-1.273,-1.2685,-1.275,-1.2755,-1.2777,-1.2854,-1.2889,-1.2863,-1.3017,-1.2965,-1.2974,-1.2978,-1.3023,-1.304,-1.3056,-1.2853,-1.2852,-1.2852,0,0,-1.2684,-1.2695,-1.2755,-1.277,-1.279,-1.2786,-1.28,-1.2814,-1.2816,-1.288,-1.2847,-1.2885,-1.2952,-1.2969,-1.2986,-1.3106,-1.308,-1.3118,-1.3186,-1.3233,-1.3247,-1.326,-1.3304,-1.332,-1.3127,-1.3127,-1.3127,0,-1.2744,-1.2808,-1.2789,-1.284,-1.2861,-1.2821,-1.2882,-1.2897,-1.2929,-1.2944,-1.2913,-1.2996,-1.3008,-1.3089,-1.3119,-1.3133,-1.315,-1.3117,-1.3246,-1.3259,-1.3271,-1.3313,-1.3329,-1.3132,-1.3131,-1.3131,-1.3131,0,-1.2881,-1.2927,-1.2972,-1.3004,-1.3029,-1.3085,-1.3074,-1.3102,-1.3086,-1.3085,-1.3151,-1.3163,-1.3201,-1.3219,-1.3204,-1.3299,-1.3282,-1.3249,-1.3196,-1.3293,-1.3332,-1.3348,-1.3139,-1.3137,-1.3136,-1.3134,0,0,-1.3039,-1.3059,-1.3076,-1.309,-1.311,-1.3145,-1.3199,-1.3235,-1.326,-1.3283,-1.3329,-1.3385,-1.3355,-1.3375,-1.3361,-1.3402,-1.3498,-1.3364,-1.3365,-1.339,-1.3605,-1.3631,-1.365,-1.348,-1.3483,-1.3485,-1.3604,0,-1.3154,-1.3248,-1.3232,-1.3323,-1.3365,-1.3327,-1.3375,-1.3392,-1.3392,-1.3428,-1.3428,-1.347,-1.3426,-1.3438,-1.3476,-1.3478,-1.3541,-1.3469,-1.3524,-1.3526,-1.3522,-1.367,-1.3698,-1.3809,-1.3619,-1.3622,-1.3623,0,-1.3301,-1.3329,-1.3425,-1.3438,-1.3455,-1.3498,-1.353,-1.3565,-1.3584,-1.3581,-1.3603,-1.3582,-1.3636,-1.3581,-1.3657,-1.3608,-1.3629,-1.3634,-1.3637,-1.3644,-1.3582,-1.3682,-1.3844,-1.3862,-1.3647,-1.3645,-1.3643,0,-1.3409,-1.347,-1.3536,-1.3548,-1.3565,-1.3597,-1.3605,-1.3621,-1.3644,-1.3672,-1.3687,-1.3722,-1.3741,-1.3768,-1.3757,-1.3717,-1.3836,-1.3779,-1.3836,-1.3837,-1.3864,-1.3863,-1.4034,-1.3875,-1.3875,-1.3874,-1.3874,0,-1.354,-1.36,-1.3584,-1.3625,-1.3691,-1.3672,-1.3739,-1.3743,-1.3757,-1.3798,-1.3767,-1.3807,-1.3788,-1.3827,-1.3818,-1.3883,-1.3891,-1.3892,-1.3889,-1.3896,-1.3896,-1.3911,-1.3903,-1.3879,-1.3878,-1.3877,-1.3876,0,-1.3673,-1.3664,-1.3733,-1.3743,-1.3747,-1.3796,-1.3805,-1.3843,-1.384,-1.3892,-1.3903,-1.3899,-1.3943,-1.3934,-1.3981,-1.3976,-1.4058,-1.4044,-1.4052,-1.4049,-1.4108,-1.4103,-1.4296,-1.4321,-1.4144,-1.4145,-1.4147,0,-1.3758,-1.3803,-1.3818,-1.3843,-1.3854,-1.3895,-1.3918,-1.39,-1.3926,-1.3951,-1.3987,-1.4027,-1.4059,-1.413,-1.4132,-1.4168,-1.4157,-1.4222,-1.4162,-1.4168,-1.416,-1.4158,-1.4163,-1.4234,-1.4236,-1.4238,-1.4239,0,-1.3911,-1.3904,-1.3939,-1.3972,-1.4001,-1.4026,-1.4049,-1.4071,-1.4055,-1.4086,-1.4129,-1.4154,-1.4202,-1.4244,-1.4277,-1.4286,-1.4262,-1.4258,-1.4273,-1.4282,-1.4285,-1.4286,-1.4086,-1.4254,-1.4253,-1.4251,-1.4251,-1.425,-1.4024,-1.4063,-1.4079,-1.4119,-1.4134,-1.4156,-1.4192,-1.4194,-1.4229,-1.4268,-1.4255,-1.4305,-1.4323,-1.4366,-1.4379,-1.4419,-1.4394,-1.4417,-1.4423,-1.4429,-1.4437,-1.4277,-1.4424,-1.4424,-1.4424,-1.4423,-1.4423,0,-1.4176,-1.4185,-1.4221,-1.4254,-1.4285,-1.4257,-1.428,-1.4309,-1.4353,-1.4372,-1.4404,-1.4454,-1.4494,-1.4498,-1.4536,-1.4567,-1.4556,-1.4578,-1.4576,-1.4579,-1.4455,-1.4439,-1.4586,-1.4586,-1.4586,-1.4585,-1.4585,-1.4585,-1.426,-1.4325,-1.432,-1.4392,-1.44,-1.4449,-1.4465,-1.4485,-1.45,-1.4558,-1.4591,-1.4593,-1.4606,-1.4644,-1.468,-1.468,-1.4696,-1.4723,-1.4719,-1.4604,-1.4588,-1.4572,-1.4557,-1.4726,-1.4726,-1.4839,-1.484,-1.4841]},{"header":{"parameterUnit":"m.s-1","parameterCategory":1,"la1":30.2991,"la2":30.254,"lo1":-89.0895,"lo2":-89.0444,"dy":0.0017,"dx":0.0017,"nx":28,"ny":28,"refTime":"2023-09-29T09:00:00:Z","depth":0,"parameterNumber":3,"parameterNumberName":"V-component_of_WINDS"},"data":[0,0,0,0,0,0,0,0,0,0,0,0,0,0,0,0,0,0,0,0,0,0,0,0,0,0,0,0,0,0,0,0,0,0,0,0,0,0,0,0,0,0,0,0,0,0,0,0,0,0,0,0,0,0,0,0,0,0,-1.2096,-1.2096,0,-1.2084,-1.2084,-1.2084,-1.2091,-1.2091,-1.2092,-1.2092,-1.2077,-1.2077,-1.2076,0,0,0,0,0,0,0,0,0,0,0,0,0,-1.2123,-1.2122,-1.2096,-1.2096,-1.2096,-1.2084,-1.2084,-1.2084,-1.2091,-1.2091,-1.2092,-1.2092,-1.2078,-1.2077,-1.2076,0,0,0,0,0,0,0,0,0,0,0,0,0,-1.2111,-1.2122,-1.2096,-1.2098,-1.2098,-1.2084,-1.2084,-1.2084,-1.2091,-1.2091,-1.2092,-1.2092,-1.2078,-1.2077,-1.2076,-1.2058,0,0,-1.2072,-1.2072,0,0,0,0,0,0,0,0,-1.2112,-1.211,-1.2098,-1.2098,-1.2098,-1.209,-1.2088,-1.2075,-1.2091,-1.2093,-1.2092,-1.2093,-1.2081,-1.208,-1.2076,-1.2058,-1.2057,-1.2072,-1.2072,-1.2071,-1.2071,0,0,0,0,0,0,0,-1.2112,-1.211,-1.2091,-1.2098,-1.2098,-1.2099,-1.2098,-1.2085,-1.2084,-1.2093,-1.2094,-1.2092,-1.2081,-1.2077,-1.2076,-1.2057,-1.2072,-1.2071,-1.2071,-1.207,-1.2023,-1.2022,0,0,0,0,0,0,-1.2113,-1.2111,-1.2092,-1.2091,-1.2106,-1.2098,-1.2096,-1.2092,-1.2084,-1.2084,-1.2092,-1.2093,-1.2079,-1.2077,-1.2075,-1.2054,-1.2071,-1.207,-1.207,-1.2023,-1.2022,-1.2022,0,0,0,0,0,0,-1.2114,-1.2112,-1.2092,-1.2101,-1.2099,-1.2097,-1.2091,-1.2091,-1.2087,-1.2083,-1.2083,-1.2088,-1.2079,-1.2077,-1.2062,-1.2053,-1.207,-1.2069,-1.2024,-1.2023,-1.2022,-1.2011,0,0,0,0,0,0,-1.2115,-1.2112,-1.2106,-1.2101,-1.2098,-1.208,-1.2091,-1.2091,-1.2086,-1.2087,-1.208,-1.2079,-1.2079,-1.2064,-1.2061,-1.2052,-1.2068,-1.2025,-1.2023,-1.2022,-1.2012,-1.201,-1.2008,0,0,0,0,0,-1.2116,-1.2103,-1.2105,-1.2103,-1.2091,-1.208,-1.2078,-1.2079,-1.2085,-1.2079,-1.2076,-1.208,-1.2055,-1.2063,-1.206,-1.205,-1.2025,-1.2024,-1.2022,-1.2013,-1.201,-1.2008,0,0,0,0,0,0,-1.2106,-1.2102,-1.2105,-1.2091,-1.2086,-1.2081,-1.2073,-1.2076,-1.2069,-1.207,-1.207,-1.2069,-1.2053,-1.205,-1.2059,-1.2032,-1.2041,-1.2039,-1.2035,-1.2032,-1.203,-1.2031,-1.2067,0,0,0,0,0,-1.2102,-1.2095,-1.2091,-1.2079,-1.2076,-1.2075,-1.207,-1.2071,-1.2066,-1.2063,-1.206,-1.2053,-1.2044,-1.2038,-1.2029,-1.2012,-1.201,-1.2004,-1.2001,-1.2,-1.1998,-1.1987,-1.1984,-1.2017,-1.2017,-1.2017,0,0,-1.2095,-1.2092,-1.2086,-1.2077,-1.2073,-1.2064,-1.2073,-1.2063,-1.2056,-1.2062,-1.2048,-1.2045,-1.2038,-1.2022,-1.2014,-1.2018,-1.1988,-1.1998,-1.1997,-1.1995,-1.1985,-1.1982,-1.1979,-1.2016,-1.2016,-1.2017,0,0,-1.2076,-1.2073,-1.2062,-1.2058,-1.2052,-1.2051,-1.2049,-1.2044,-1.2042,-1.2028,-1.2032,-1.2023,-1.2007,-1.2002,-1.1997,-1.1975,-1.1978,-1.1972,-1.1961,-1.195,-1.1948,-1.1945,-1.1937,-1.1933,-1.197,-1.197,-1.197,0,-1.2066,-1.2054,-1.2056,-1.2045,-1.204,-1.2046,-1.2034,-1.2029,-1.2021,-1.2017,-1.2022,-1.2002,-1.1998,-1.198,-1.1974,-1.1971,-1.1966,-1.1973,-1.1948,-1.1946,-1.1944,-1.1935,-1.1932,-1.197,-1.197,-1.197,-1.197,0,-1.2042,-1.2033,-1.2025,-1.2017,-1.2011,-1.2,-1.1999,-1.1993,-1.1994,-1.1993,-1.1978,-1.1973,-1.1963,-1.1959,-1.196,-1.1941,-1.1943,-1.1948,-1.1957,-1.194,-1.1932,-1.1929,-1.1969,-1.1969,-1.1969,-1.1969,0,0,-1.2017,-1.201,-1.2007,-1.2003,-1.1996,-1.1989,-1.1978,-1.1969,-1.1963,-1.1956,-1.1946,-1.1933,-1.1937,-1.1931,-1.1932,-1.1923,-1.1904,-1.1928,-1.1928,-1.1923,-1.1882,-1.1877,-1.1874,-1.1906,-1.1906,-1.1905,-1.1882,0,-1.1996,-1.1978,-1.1979,-1.1961,-1.1952,-1.1956,-1.1946,-1.1941,-1.1938,-1.193,-1.1927,-1.1917,-1.1924,-1.1921,-1.1912,-1.1909,-1.1896,-1.191,-1.1896,-1.1895,-1.1897,-1.187,-1.1866,-1.1844,-1.1879,-1.1878,-1.1878,0,-1.1971,-1.1964,-1.1945,-1.1939,-1.1936,-1.1927,-1.1918,-1.191,-1.1903,-1.1902,-1.1896,-1.1898,-1.1885,-1.1894,-1.1876,-1.1886,-1.188,-1.1877,-1.1876,-1.1875,-1.1885,-1.1866,-1.1837,-1.1833,-1.1873,-1.1874,-1.1874,0,-1.1953,-1.1939,-1.1926,-1.1922,-1.1916,-1.1909,-1.1906,-1.19,-1.1894,-1.1886,-1.1882,-1.1873,-1.1867,-1.1859,-1.1858,-1.1865,-1.1839,-1.1848,-1.1837,-1.1837,-1.1831,-1.1831,-1.1799,-1.1828,-1.1828,-1.1828,-1.1828,0,-1.193,-1.1918,-1.1918,-1.1909,-1.1896,-1.1897,-1.1883,-1.188,-1.1875,-1.1865,-1.1868,-1.1859,-1.1858,-1.1848,-1.1847,-1.1831,-1.1829,-1.1827,-1.1826,-1.1826,-1.1826,-1.1822,-1.1823,-1.1827,-1.1827,-1.1828,-1.1828,0,-1.1908,-1.1907,-1.1893,-1.1888,-1.1886,-1.1876,-1.1871,-1.1863,-1.1861,-1.1849,-1.1846,-1.1843,-1.1831,-1.1829,-1.1815,-1.1814,-1.1795,-1.1797,-1.1798,-1.1798,-1.1786,-1.1787,-1.1749,-1.1744,-1.1777,-1.1777,-1.1777,0,-1.1893,-1.1884,-1.1878,-1.1872,-1.1869,-1.1859,-1.1853,-1.1854,-1.1847,-1.1838,-1.1831,-1.1819,-1.1811,-1.1792,-1.1787,-1.1776,-1.1777,-1.1765,-1.1775,-1.1775,-1.1776,-1.1776,-1.1775,-1.1763,-1.1762,-1.1762,-1.1762,0,-1.1866,-1.1866,-1.1858,-1.185,-1.1843,-1.1836,-1.1829,-1.1824,-1.1823,-1.1815,-1.1804,-1.1797,-1.1783,-1.1771,-1.176,-1.1756,-1.1758,-1.1758,-1.1755,-1.1754,-1.1755,-1.1753,-1.1791,-1.1759,-1.1759,-1.176,-1.176,-1.176,-1.1847,-1.1839,-1.1833,-1.1823,-1.1819,-1.1812,-1.1804,-1.1801,-1.1792,-1.1781,-1.1781,-1.1768,-1.1761,-1.1746,-1.1741,-1.173,-1.1734,-1.1729,-1.1728,-1.1726,-1.1725,-1.1757,-1.1728,-1.1728,-1.1728,-1.1728,-1.1728,0,-1.182,-1.1816,-1.1807,-1.1798,-1.179,-1.1794,-1.1787,-1.178,-1.1769,-1.1762,-1.1753,-1.1739,-1.1728,-1.1722,-1.1711,-1.1703,-1.1704,-1.17,-1.17,-1.1699,-1.1723,-1.1726,-1.17,-1.17,-1.17,-1.17,-1.17,-1.17,-1.1804,-1.1791,-1.179,-1.1773,-1.1769,-1.1757,-1.1753,-1.1746,-1.1741,-1.1726,-1.1716,-1.1713,-1.1707,-1.1695,-1.1684,-1.1682,-1.1677,-1.1673,-1.1672,-1.1694,-1.1697,-1.17,-1.1703,-1.1672,-1.1672,-1.1649,-1.1649,-1.1649]}]]